Tetonia, ID

1:22 AM MDT on September 28, 2016 (GMT -0600)
Driggs

Weather History for KDIJ - November, 2011

Change the Weather History Date:

Saturday, November 19, 2011

  Actual Average (KRXE) Record (KRXE)
Temperature  
Mean Temperature 14 °F 29 °F  
Max Temperature 23 °F 38 °F 58 °F (2007)
Min Temperature 6 °F 20 °F 4 °F (2000)
Degree Days  
Heating Degree Days 50 36  
Month to date heating degree days 596  
Since 1 July heating degree days 1583  
Cooling Degree Days 0 0  
Month to date cooling degree days 0  
Year to date cooling degree days 208  
Moisture  
Dew Point 12 °F    
Average Humidity 78    
Maximum Humidity 93    
Minimum Humidity 62    
Precipitation  
Precipitation 0.00 in 0.03 in 0.50 in (1986)
Month to date precipitation 0.71  
Year to date precipitation 11.70  
Sea Level Pressure  
Sea Level Pressure 29.73 in    
Wind  
Wind Speed 12 mph (SSW)    
Max Wind Speed 20 mph    
Max Gust Speed -    
Visibility 6 miles    
Events Snow    
T = Trace of Precipitation, MM = Missing Value Source: NWS Daily Summary

Daily Weather History Graph

Daily Weather History Graph

Search for Another Location

Airport or City:

Trip Planner

Search our weather history database for the weather conditions in past years. The results will help you decide how hot, cold, wet, or windy it might be!

Date:

Astronomy

Nov. 19, 2011 Rise Set
Actual Time 7:23 AM MST 4:55 PM MST
Civil Twilight 6:52 AM MST 5:26 PM MST
Nautical Twilight 6:17 AM MST 6:01 PM MST
Astronomical Twilight 5:43 AM MST 6:35 PM MST
Moon 12:36 AM MST (11/19) 1:25 PM MST (11/19)
Length of Visible Light 10h 34m
Length of Day
9h 31m
Last Quarter, 37% of the Moon is Illuminated
Nov 19
Last Quarter
Nov 24
New
Dec 2
First Quarter
Dec 10
Full
Dec 17
Last Quarter

Hourly Weather History & Observations

Time (MST) Temp. Windchill Dew Point Humidity Pressure Visibility Wind Dir Wind Speed Gust Speed Precip Events Conditions
12:08 AM 23.0 °F 11.1 °F 19.4 °F 86% 29.50 in 2.5 mi South 12.7 mph - 0.00 in Snow Light Snow
12:14 AM 23.0 °F 11.7 °F 19.4 °F 86% 29.50 in 1.8 mi South 11.5 mph - 0.00 in Snow Light Snow
12:21 AM 23.0 °F 11.7 °F 19.4 °F 86% 29.50 in 2.5 mi South 11.5 mph - 0.00 in Snow Light Snow
12:25 AM 21.2 °F 9.5 °F 19.4 °F 93% 29.50 in 6.0 mi South 11.5 mph - 0.00 in   Mostly Cloudy
12:37 AM 23.0 °F 13.1 °F 19.4 °F 86% 29.51 in 10.0 mi SSW 9.2 mph - 0.00 in   Mostly Cloudy
12:56 AM 23.0 °F 11.1 °F 20.1 °F 89% 29.54 in 4.0 mi SSW 12.7 mph - 0.00 in Snow Light Snow
1:56 AM 22.1 °F 10.0 °F 16.2 °F 78% 29.58 in 10.0 mi SSW 12.7 mph - 0.00 in   Mostly Cloudy
2:31 AM 21.2 °F 8.9 °F 15.8 °F 80% 29.59 in 4.0 mi SW 12.7 mph - 0.00 in Snow Light Snow
2:38 AM 21.2 °F 6.0 °F 15.8 °F 80% 29.58 in 4.0 mi SW 19.6 mph - 0.00 in Snow Light Snow
3:10 AM 21.2 °F 8.9 °F 15.8 °F 80% 29.60 in 2.5 mi SW 12.7 mph - 0.00 in Snow Light Snow
3:30 AM 21.2 °F 8.3 °F 15.8 °F 80% 29.60 in 5.0 mi WSW 13.8 mph - 0.00 in Snow Light Snow
3:38 AM 21.2 °F 7.8 °F 15.8 °F 80% 29.61 in 2.5 mi WSW 15.0 mph - 0.00 in Snow Light Snow
3:41 AM 19.4 °F 4.5 °F 15.8 °F 86% 29.60 in 1.2 mi SW 17.3 mph - 0.00 in Snow Light Snow
3:44 AM 19.4 °F 5.5 °F 15.8 °F 86% 29.60 in 1.0 mi SW 15.0 mph - 0.00 in Snow Light Snow
3:47 AM 19.4 °F 6.6 °F 15.8 °F 86% 29.61 in 1.2 mi SSW 12.7 mph - 0.00 in Snow Light Snow
3:56 AM 20.1 °F 6.9 °F 16.2 °F 85% 29.65 in 3.0 mi SSW 13.8 mph - 0.00 in Snow Light Snow
4:11 AM 21.2 °F 10.1 °F 12.2 °F 68% 29.61 in 10.0 mi SSW 10.4 mph - 0.00 in   Mostly Cloudy
4:56 AM 19.0 °F 5.0 °F 12.0 °F 74% 29.69 in 6.0 mi SW 15.0 mph - 0.00 in   Haze
5:04 AM 19.4 °F 5.0 °F 12.2 °F 74% 29.63 in 7.0 mi SSW 16.1 mph - N/A   Overcast
5:35 AM 19.4 °F 6.0 °F 12.2 °F 74% 29.64 in 2.5 mi SSW 13.8 mph - 0.00 in Snow Light Snow
5:56 AM 18.1 °F 5.0 °F 14.0 °F 84% 29.74 in 1.2 mi SSW 12.7 mph - 0.00 in Snow Light Snow
6:07 AM 17.6 °F 2.7 °F 14.0 °F 86% 29.66 in 1.0 mi SSW 16.1 mph - 0.00 in Snow Light Snow
6:15 AM 17.6 °F 3.2 °F 14.0 °F 86% 29.66 in 0.8 mi South 15.0 mph - 0.00 in   Overcast
6:22 AM 17.6 °F 3.2 °F 14.0 °F 86% 29.67 in 1.0 mi SSW 15.0 mph - 0.00 in   Overcast
6:31 AM 17.6 °F 4.3 °F 14.0 °F 86% 29.68 in 1.2 mi South 12.7 mph - 0.00 in Snow Light Snow
6:38 AM 17.6 °F 7.3 °F 14.0 °F 86% 29.69 in 2.0 mi SSW 8.1 mph - 0.00 in Snow Light Snow
6:44 AM 17.6 °F 7.3 °F 12.2 °F 79% 29.69 in 4.0 mi SSW 8.1 mph - 0.00 in   Overcast
6:56 AM 16.2 °F 6.5 °F 12.0 °F 84% 29.80 in 10.0 mi South 6.9 mph - 0.00 in   Overcast
7:18 AM 17.6 °F 4.3 °F 12.2 °F 79% 29.70 in 10.0 mi South 12.7 mph - N/A   Mostly Cloudy
7:56 AM 17.1 °F 7.6 °F 12.0 °F 81% 29.81 in 10.0 mi SSW 6.9 mph - N/A   Overcast
8:13 AM 17.6 °F 6.4 °F 12.2 °F 79% 29.74 in 10.0 mi South 9.2 mph - 0.00 in Snow Light Snow
8:27 AM 17.6 °F 6.4 °F 12.2 °F 79% 29.74 in 4.0 mi South 9.2 mph - 0.00 in Snow Light Snow
8:38 AM 17.6 °F 5.7 °F 10.4 °F 73% 29.75 in 7.0 mi South 10.4 mph - 0.00 in   Mostly Cloudy
8:56 AM 16.2 °F 4.7 °F 11.1 °F 81% 29.83 in 10.0 mi South 9.2 mph - 0.00 in   Partly Cloudy
9:56 AM 17.1 °F 4.3 °F 11.1 °F 77% 29.86 in 10.0 mi South 11.5 mph - N/A   Mostly Cloudy
11:56 AM 18.1 °F 6.3 °F 9.1 °F 68% 29.88 in 10.0 mi South 10.4 mph - N/A   Clear
12:56 PM 20.1 °F 8.1 °F 10.0 °F 65% 29.87 in 10.0 mi South 11.5 mph - N/A   Scattered Clouds
1:56 PM 20.1 °F 8.8 °F 9.1 °F 62% 29.88 in 10.0 mi South 10.4 mph - N/A   Overcast
2:56 PM 19.0 °F 9.0 °F 9.1 °F 65% 29.88 in 10.0 mi SSE 8.1 mph - N/A   Partly Cloudy
3:56 PM 16.2 °F 6.5 °F 7.2 °F 68% 29.93 in 10.0 mi SSE 6.9 mph - N/A   Scattered Clouds
4:56 PM 14.0 °F 3.9 °F 6.1 °F 71% 29.96 in 10.0 mi SSE 6.9 mph - N/A   Scattered Clouds
5:56 PM 15.1 °F 4.2 °F 7.2 °F 71% 29.97 in 10.0 mi SE 8.1 mph - N/A   Overcast
6:56 PM 14.0 °F 2.0 °F 5.0 °F 67% 29.99 in 10.0 mi SE 9.2 mph - N/A   Clear
7:56 PM 9.1 °F -0.7 °F 1.0 °F 70% 30.01 in 10.0 mi SE 5.8 mph - N/A   Mostly Cloudy
8:56 PM 6.1 °F -6.8 °F -2.9 °F 67% 30.04 in 10.0 mi SSE 8.1 mph - N/A   Clear
9:56 PM 9.1 °F -0.7 °F 1.0 °F 70% 30.03 in 10.0 mi South 5.8 mph - N/A   Mostly Cloudy
11:56 PM 8.1 °F -2.0 °F 2.1 °F 77% 30.04 in 10.0 mi South 5.8 mph - N/A   Scattered Clouds